Location: Newark
(20.0000°S, 47.0000°E)
Time: 12:55:12
(UTC+00:00)

N. Korean satellite - Pass Details

Date: 19 August 2020
Orbit: 455 x 503 km, 97.2° (Epoch: 20 September)

Event Time Altitude Azimuth Distance (km) Brightness Sun altitude
Rises 01:21:39 0° 32° (NNE) 2,580 10.8 -26.1°
Reaches altitude 10° 01:23:55 10° 44° (NE) 1,707 9.9 -25.6°
Maximum altitude 01:27:05 28° 104° (ESE) 977 8.7 -24.9°
Drops below altitude 10° 01:30:18 10° 164° (SSE) 1,725 9.5 -24.1°
Sets 01:32:36 0° 175° (S) 2,614 10.3 -23.6°
